Weather History for Calvi, France

Change the Weather History Date:

Wednesday, November 21, 2012

  Actual Average Record
Temperature  
Mean Temperature 57 °F -  
Max Temperature 66 °F 57 °F 68 °F (2011)
Min Temperature 48 °F 46 °F 39 °F (1998)
Degree Days  
Heating Degree Days 8    
Growing Degree Days 7 (Base 50)    
Moisture  
Dew Point 53 °F    
Average Humidity 78    
Maximum Humidity 94    
Minimum Humidity 64    
Precipitation  
Precipitation 0.00 in - - ()
Sea Level Pressure  
Sea Level Pressure 30.06 in    
Wind  
Wind Speed 4 mph ()    
Max Wind Speed 7 mph    
Max Gust Speed -    
Visibility 6.2 miles    
Events      
Averages and records for this station are not official NWS values.
T = Trace of Precipitation, MM = Missing Value Source: Averaged Metar Reports

Daily Weather History Graph

Daily Weather History Graph

Search for Another Location

Airport:

Trip Planner

Search our weather history database for the weather conditions in past years. The results will help you decide how hot, cold, wet, or windy it might be!

Date:

Astronomy

Nov. 21, 2012 Rise Set
Actual Time 7:23 AM CET 4:57 PM CET
Civil Twilight 6:52 AM CET 5:28 PM CET
Nautical Twilight 6:18 AM CET 6:02 PM CET
Astronomical Twilight 5:44 AM CET 6:36 PM CET
Moon 1:13 PM CET (11/21) 12:17 AM CET (11/21)
Length of Visible Light 10h 35m
Length of Day
9h 33m
First Quarter, 59% of the Moon is Illuminated
Nov 21
First Quarter
Nov 28
Full
Dec 6
Last Quarter
Dec 13
New
Dec 20
First Quarter

Hourly Weather History & Observations

Time (CET) Temp. Dew Point Humidity Pressure Visibility Wind Dir Wind Speed Gust Speed Precip Events Conditions
7:00 AM 50.0 °F 48.2 °F 94% 30.04 in 6.2 mi SSW 6.9 mph - N/A   Partly Cloudy
7:30 AM 48.2 °F 44.6 °F 87% 30.04 in 6.2 mi South 3.5 mph - N/A   Partly Cloudy
8:00 AM 48.2 °F 46.4 °F 93% 30.04 in 6.2 mi South 4.6 mph - N/A   Partly Cloudy
8:30 AM 50.0 °F 48.2 °F 94% 30.06 in 6.2 mi South 5.8 mph - N/A   Partly Cloudy
9:00 AM 53.6 °F 50.0 °F 88% 30.06 in - SSW 2.3 mph - N/A   Clear
9:30 AM 57.2 °F 51.8 °F 82% 30.06 in 6.2 mi SSW 4.6 mph - N/A   Partly Cloudy
10:00 AM 60.8 °F 51.8 °F 72% 30.06 in 6.2 mi Calm Calm - N/A   Partly Cloudy
10:30 AM 64.4 °F 53.6 °F 68% 30.06 in - Variable 1.2 mph - N/A   Clear
11:00 AM 64.4 °F 55.4 °F 73% 30.06 in 6.2 mi Variable 2.3 mph - N/A   Partly Cloudy
11:30 AM 64.4 °F 53.6 °F 68% 30.06 in 6.2 mi North 3.5 mph - N/A   Partly Cloudy
12:00 PM 64.4 °F 57.2 °F 77% 30.06 in 6.2 mi North 5.8 mph - N/A   Partly Cloudy
12:30 PM 64.4 °F 55.4 °F 73% 30.06 in 6.2 mi North 6.9 mph - N/A   Partly Cloudy
1:00 PM 64.4 °F 55.4 °F 73% 30.06 in 6.2 mi NNE 5.8 mph - N/A   Partly Cloudy
1:30 PM 66.2 °F 53.6 °F 64% 30.06 in 6.2 mi NNE 3.5 mph - N/A   Partly Cloudy
2:00 PM 66.2 °F 53.6 °F 64% 30.06 in 6.2 mi Variable 2.3 mph - N/A   Partly Cloudy
2:30 PM 64.4 °F 55.4 °F 73% 30.06 in 6.2 mi NE 4.6 mph - N/A   Partly Cloudy
3:00 PM 64.4 °F 55.4 °F 73% 30.06 in 6.2 mi NNE 4.6 mph - N/A   Scattered Clouds
3:30 PM 62.6 °F 55.4 °F 77% 30.06 in 6.2 mi North 3.5 mph - N/A   Scattered Clouds
4:00 PM 60.8 °F 55.4 °F 82% 30.06 in 6.2 mi Variable 2.3 mph - N/A   Mostly Cloudy
4:30 PM 59.0 °F 53.6 °F 82% 30.06 in 6.2 mi Variable 2.3 mph - N/A   Mostly Cloudy
5:00 PM 59.0 °F 53.6 °F 82% 30.06 in - Calm Calm - N/A   Clear
5:30 PM 55.4 °F 51.8 °F 88% 30.06 in - SSE 5.8 mph - N/A   Clear